| time (UTC) | temp F | wind direction | speed MPH | gust MPH | rain 1hr in | rain 24hr in | rain mn in | humidity % | barometer mb |
| 20260901044107 | 0 | 149 | 6.0 | 7.0 | 0.00 | 0.00 | 0.00 | 1018.4 | |
| 20260901043602 | 0 | 223 | 3.0 | 3.0 | 0.00 | 0.00 | 0.00 | 1018.4 | |
| 20260901043058 | 0 | 223 | 3.0 | 3.0 | 0.00 | 0.00 | 0.00 | 1018.4 | |
| 20260901042557 | 0 | 223 | 3.0 | 3.0 | 0.00 | 0.00 | 0.00 | 1018.4 | |
| 20260901042053 | 0 | 188 | 4.0 | 6.0 | 0.00 | 0.00 | 0.00 | 1018.3 | |
| 20260901041548 | 0 | 188 | 2.0 | 4.0 | 0.00 | 0.00 | 0.00 | 1018.2 | |
| 20260901041042 | 0 | 188 | 2.0 | 4.0 | 0.00 | 0.00 | 0.00 | 1018.3 | |
| 20260901040542 | 0 | 180 | 1.0 | 3.0 | 0.00 | 0.00 | 0.00 | 1018.3 | |
| 20260901040037 | 0 | 151 | 4.0 | 7.0 | 0.00 | 0.00 | 0.00 | 1018.2 | |
| 20260901035535 | 0 | 151 | 4.0 | 7.0 | 0.00 | 0.00 | 0.00 | 1018.2 | |
| 20260901035033 | 0 | 151 | 4.0 | 7.0 | 0.00 | 0.00 | 0.00 | 1018.1 | |
| 20260901034528 | 0 | 193 | 0.0 | 2.0 | 0.00 | 0.00 | 0.00 | 1018.1 | |
| 20260901034023 | 0 | 211 | 1.0 | 4.0 | 0.00 | 0.00 | 0.00 | 1018.1 | |
| 20260901033522 | 0 | 221 | 0.0 | 3.0 | 0.00 | 0.00 | 0.00 | 1018.0 | |
| 20260901033022 | 0 | 221 | 0.0 | 3.0 | 0.00 | 0.00 | 0.00 | 1018.0 | |
| 20260901032515 | 0 | 221 | 0.0 | 3.0 | 0.00 | 0.00 | 0.00 | 1018.1 | |
| 20260901032016 | 0 | 242 | 0.0 | 0.0 | 0.00 | 0.00 | 0.00 | 1017.9 | |
| 20260901031511 | 0 | 242 | 0.0 | 0.0 | 0.00 | 0.00 | 0.00 | 1017.8 | |
| 20260901031007 | 0 | 242 | 0.0 | 0.0 | 0.00 | 0.00 | 0.00 | 1017.6 | |
| 20260901030501 | 0 | 242 | 0.0 | 0.0 | 0.00 | 0.00 | 0.00 | 1017.8 | |
| 20260901030001 | 0 | 242 | 0.0 | 0.0 | 0.00 | 0.00 | 0.00 | 1017.6 | |
| 20260901025455 | 0 | 242 | 0.0 | 0.0 | 0.00 | 0.00 | 0.00 | 1017.5 | |
| 20260901024955 | 0 | 242 | 0.0 | 0.0 | 0.00 | 0.00 | 0.00 | 1017.4 | |
| 20260901024450 | 0 | 269 | 0.0 | 0.0 | 0.00 | 0.00 | 0.00 | 1017.4 | |
| 20260901023948 | 0 | 269 | 0.0 | 0.0 | 0.00 | 0.00 | 0.00 | 1017.4 | |
| 20260901023443 | 0 | 269 | 0.0 | 0.0 | 0.00 | 0.00 | 0.00 | 1017.2 | |
| 20260901022938 | 0 | 269 | 0.0 | 0.0 | 0.00 | 0.00 | 0.00 | 1017.2 | |
| 20260901022434 | 0 | 269 | 0.0 | 0.0 | 0.00 | 0.00 | 0.00 | 1017.1 | |
| 20260901021928 | 0 | 269 | 0.0 | 0.0 | 0.00 | 0.00 | 0.00 | 1017.1 | |
| 20260901021424 | 0 | 269 | 0.0 | 0.0 | 0.00 | 0.00 | 0.00 | 1016.9 | |
| 20260901020919 | 0 | 269 | 0.0 | 0.0 | 0.00 | 0.00 | 0.00 | 1016.9 | |
| 20260901020414 | 0 | 0.0 | 0.0 | 0.00 | 0.00 | 0.00 | 1016.7 | ||
| 20260901015913 | 0 | 0.0 | 0.0 | 0.00 | 0.00 | 0.00 | 1016.8 | ||
| 20260901015410 | 0 | 0.0 | 0.0 | 0.00 | 0.00 | 0.00 | 1016.8 | ||
| 20260901014909 | 0 | 0.0 | 0.0 | 0.00 | 0.00 | 0.00 | 1016.5 | ||
| 20260901014406 | 0 | 0.0 | 0.0 | 0.00 | 0.00 | 0.00 | 1016.4 | ||
| 20260901013900 | 0 | 0.0 | 0.0 | 0.00 | 0.00 | 0.00 | 1016.4 | ||
| 20260901013351 | 0 | 0.0 | 0.0 | 0.00 | 0.00 | 0.00 | 1016.4 | ||
| 20260901012847 | 0 | 0.0 | 0.0 | 0.00 | 0.00 | 0.00 | 1016.4 | ||
| 20260901012341 | 0 | 0.0 | 0.0 | 0.00 | 0.00 | 0.00 | 1016.4 | ||
| 20260901011837 | 0 | 0.0 | 0.0 | 0.00 | 0.00 | 0.00 | 1016.4 | ||
| 20260901011332 | 0 | 0.0 | 0.0 | 0.00 | 0.00 | 0.00 | 1016.2 | ||
| 20260901010826 | 0 | 0.0 | 0.0 | 0.00 | 0.00 | 0.00 | 1016.1 | ||
| 20260901010320 | 0 | 0.0 | 0.0 | 0.00 | 0.00 | 0.00 | 1016.2 | ||
| 20260901005819 | 0 | 0.0 | 0.0 | 0.00 | 0.00 | 0.00 | 1016.1 | ||
| 20260901005315 | 0 | 0.0 | 0.0 | 0.00 | 0.00 | 0.00 | 1016.1 | ||
| 20260901004814 | 0 | 0.0 | 0.0 | 0.00 | 0.00 | 0.00 | 1016.0 | ||
| 20260901004309 | 0 | 0.0 | 0.0 | 0.00 | 0.00 | 0.00 | 1016.0 | ||
| 20260901003809 | 0 | 166 | 0.0 | 1.0 | 0.00 | 0.00 | 0.00 | 1016.0 | |
| 20260901003303 | 0 | 166 | 0.0 | 1.0 | 0.00 | 0.00 | 0.00 | 1016.0 | |
| 20260901002757 | 0 | 166 | 0.0 | 1.0 | 0.00 | 0.00 | 0.00 | 1016.0 | |
| 20260901002252 | 0 | 166 | 0.0 | 1.0 | 0.00 | 0.00 | 0.00 | 1015.8 | |
| 20260901001747 | 0 | 166 | 0.0 | 1.0 | 0.00 | 0.00 | 0.00 | 1015.8 | |
| 20260901001243 | 0 | 166 | 0.0 | 1.0 | 0.00 | 0.00 | 0.00 | 1015.8 | |
| 20260901000738 | 0 | 166 | 0.0 | 1.0 | 0.00 | 0.00 | 0.00 | 1015.8 | |
| 20260901000233 | 0 | 166 | 0.0 | 1.0 | 0.00 | 0.00 | 0.00 | 1015.8 | |
| 20260831235731 | 0 | 166 | 0.0 | 1.0 | 0.00 | 0.00 | 0.00 | 1015.8 | |
| 20260831235227 | 0 | 166 | 0.0 | 1.0 | 0.00 | 0.00 | 0.00 | 1015.8 | |
| 20260831234722 | 0 | 166 | 0.0 | 1.0 | 0.00 | 0.00 | 0.00 | 1015.9 | |
| 20260831234222 | 0 | 166 | 0.0 | 1.0 | 0.00 | 0.00 | 0.00 | 1016.1 | |
| 20260831233717 | 0 | 194 | 3.0 | 4.0 | 0.00 | 0.00 | 0.00 | 1016.0 | |
| 20260831233213 | 0 | 194 | 3.0 | 4.0 | 0.00 | 0.00 | 0.00 | 1016.0 | |
| 20260831232712 | 0 | 194 | 3.0 | 4.0 | 0.00 | 0.00 | 0.00 | 1016.1 | |
| 20260831232209 | 0 | 194 | 3.0 | 4.0 | 0.00 | 0.00 | 0.00 | 1016.0 | |
| 20260831231705 | 0 | 194 | 3.0 | 4.0 | 0.00 | 0.00 | 0.00 | 1016.0 | |
| 20260831231200 | 0 | 194 | 3.0 | 4.0 | 0.00 | 0.00 | 0.00 | 1016.0 | |
| 20260831230655 | 0 | 194 | 3.0 | 4.0 | 0.00 | 0.00 | 0.00 | 1016.0 | |
| 20260831230150 | 0 | 181 | 3.0 | 5.0 | 0.00 | 0.00 | 0.00 | 1016.1 | |
| 20260831225650 | 0 | 181 | 3.0 | 5.0 | 0.00 | 0.00 | 0.00 | 1016.0 | |
| 20260831225145 | 0 | 167 | 3.0 | 4.0 | 0.00 | 0.00 | 0.00 | 1016.1 | |
| 20260831224640 | 0 | 167 | 3.0 | 4.0 | 0.00 | 0.00 | 0.00 | 1016.1 | |
| 20260831224135 | 0 | 167 | 3.0 | 4.0 | 0.00 | 0.00 | 0.00 | 1016.3 | |
| 20260831223631 | 0 | 167 | 3.0 | 4.0 | 0.00 | 0.00 | 0.00 | 1016.4 | |
| 20260831223127 | 0 | 167 | 3.0 | 4.0 | 0.00 | 0.00 | 0.00 | 1016.1 | |
| 20260831222622 | 0 | 160 | 4.0 | 7.0 | 0.00 | 0.00 | 0.00 | 1016.3 | |
| 20260831222118 | 0 | 160 | 4.0 | 7.0 | 0.00 | 0.00 | 0.00 | 1016.3 | |
| 20260831221613 | 0 | 160 | 4.0 | 7.0 | 0.00 | 0.00 | 0.00 | 1016.3 | |
| 20260831221108 | 0 | 160 | 4.0 | 7.0 | 0.00 | 0.00 | 0.00 | 1016.5 | |
| 20260831220603 | 0 | 186 | 3.0 | 5.0 | 0.00 | 0.00 | 0.00 | 1016.4 | |
| 20260831220058 | 0 | 186 | 3.0 | 5.0 | 0.00 | 0.00 | 0.00 | 1016.2 | |
| 20260831215554 | 0 | 186 | 3.0 | 5.0 | 0.00 | 0.00 | 0.00 | 1016.6 | |
| 20260831215049 | 0 | 201 | 2.0 | 5.0 | 0.00 | 0.00 | 0.00 | 1016.7 | |
| 20260831214547 | 0 | 201 | 2.0 | 5.0 | 0.00 | 0.00 | 0.00 | ||
| 20260831214042 | 0 | 170 | 2.0 | 5.0 | 0.00 | 0.00 | 0.00 | 1017.4 | |
| 20260831213539 | 0 | 159 | 2.0 | 3.0 | 0.00 | 0.00 | 0.00 | 1017.4 | |
| 20260831213034 | 0 | 199 | 1.0 | 4.0 | 0.00 | 0.00 | 0.00 | 1017.4 | |
| 20260831212530 | 0 | 174 | 2.0 | 5.0 | 0.00 | 0.00 | 0.00 | 1017.4 | |
| 20260831212025 | 0 | 143 | 3.0 | 3.0 | 0.00 | 0.00 | 0.00 | 1017.4 | |
| 20260831211520 | 0 | 210 | 2.0 | 3.0 | 0.00 | 0.00 | 0.00 | 1017.4 | |
| 20260831211019 | 0 | 210 | 2.0 | 3.0 | 0.00 | 0.00 | 0.00 | 1017.4 | |
| 20260831210514 | 0 | 186 | 3.0 | 6.0 | 0.00 | 0.00 | 0.00 | 1017.4 | |
| 20260831210011 | 0 | 186 | 3.0 | 6.0 | 0.00 | 0.00 | 0.00 | 1017.4 | |
| 20260831205510 | 0 | 184 | 2.0 | 6.0 | 0.00 | 0.00 | 0.00 | 1017.4 | |
| 20260831205007 | 0 | 173 | 7.0 | 10.0 | 0.00 | 0.00 | 0.00 | 1017.4 | |
| 20260831204501 | 0 | 173 | 7.0 | 10.0 | 0.00 | 0.00 | 0.00 | 1017.4 | |
| 20260831203959 | 0 | 128 | 2.0 | 7.0 | 0.00 | 0.00 | 0.00 | 1017.5 | |
| 20260831203459 | 0 | 190 | 1.0 | 3.0 | 0.00 | 0.00 | 0.00 | 1017.6 | |
| 20260831202957 | 0 | 224 | 2.0 | 3.0 | 0.00 | 0.00 | 0.00 | 1017.9 | |
| 20260831202453 | 0 | 269 | 0.0 | 2.0 | 0.00 | 0.00 | 0.00 | 1017.9 | |
| 20260831201952 | 0 | 189 | 3.0 | 6.0 | 0.00 | 0.00 | 0.00 | 1018.0 | |
| 20260831201450 | 0 | 169 | 3.0 | 4.0 | 0.00 | 0.00 | 0.00 | 1018.1 | |
| 20260831200947 | 0 | 215 | 1.0 | 4.0 | 0.00 | 0.00 | 0.00 | 1018.2 | |
| 20260831200442 | 0 | 343 | 0.0 | 7.0 | 0.00 | 0.00 | 0.00 | 1018.2 | |
| 20260831195936 | 0 | 209 | 2.0 | 3.0 | 0.00 | 0.00 | 0.00 | 1018.3 | |
| 20260831195431 | 0 | 123 | 0.0 | 4.0 | 0.00 | 0.00 | 0.00 | 1018.4 | |
| 20260831194927 | 0 | 224 | 3.0 | 6.0 | 0.00 | 0.00 | 0.00 | 1018.3 | |
| 20260831194422 | 0 | 157 | 2.0 | 2.0 | 0.00 | 0.00 | 0.00 | 1018.5 | |
| 20260831193921 | 0 | 0.0 | 0.0 | 0.00 | 0.00 | 0.00 | 1018.6 | ||
| 20260831193417 | 0 | 0.0 | 0.0 | 0.00 | 0.00 | 0.00 | 1018.5 | ||
| 20260831192912 | 0 | 0.0 | 0.0 | 0.00 | 0.00 | 0.00 | 1018.7 | ||
| 20260831192407 | 0 | 0.0 | 0.0 | 0.00 | 0.00 | 0.00 | 1018.7 | ||
| 20260831191902 | 0 | 193 | 3.0 | 4.0 | 0.00 | 0.00 | 0.00 | 1018.7 | |
| 20260831191358 | 0 | 193 | 3.0 | 4.0 | 0.00 | 0.00 | 0.00 | 1018.8 | |
| 20260831190854 | 0 | 193 | 3.0 | 4.0 | 0.00 | 0.00 | 0.00 | 1019.0 | |
| 20260831190354 | 0 | 193 | 3.0 | 4.0 | 0.00 | 0.00 | 0.00 | 1019.2 | |
| 20260831185853 | 0 | 193 | 3.0 | 4.0 | 0.00 | 0.00 | 0.00 | 1019.1 | |
| 20260831185350 | 0 | 193 | 3.0 | 4.0 | 0.00 | 0.00 | 0.00 | 1019.1 | |
| 20260831184849 | 0 | 193 | 3.0 | 4.0 | 0.00 | 0.00 | 0.00 | 1019.3 | |
| 20260831184344 | 0 | 193 | 3.0 | 4.0 | 0.00 | 0.00 | 0.00 | 1019.3 | |
| 20260831183839 | 0 | 193 | 3.0 | 4.0 | 0.00 | 0.00 | 0.00 | 1019.3 | |
| 20260831183339 | 0 | 193 | 3.0 | 4.0 | 0.00 | 0.00 | 0.00 | 1019.5 | |
| 20260831182838 | 0 | 193 | 3.0 | 4.0 | 0.00 | 0.00 | 0.00 | 1019.5 | |
| 20260831182333 | 0 | 193 | 3.0 | 4.0 | 0.00 | 0.00 | 0.00 | 1019.5 | |
| 20260831181828 | 0 | 154 | 3.0 | 3.0 | 0.00 | 0.00 | 0.00 | 1019.5 | |
| 20260831181324 | 0 | 154 | 3.0 | 3.0 | 0.00 | 0.00 | 0.00 | 1019.8 | |
| 20260831180818 | 0 | 154 | 3.0 | 3.0 | 0.00 | 0.00 | 0.00 | 1019.7 | |
| 20260831180313 | 0 | 198 | 2.0 | 3.0 | 0.00 | 0.00 | 0.00 | 1019.8 | |
| 20260831175812 | 0 | 198 | 2.0 | 3.0 | 0.00 | 0.00 | 0.00 | 1019.8 | |
| 20260831175309 | 0 | 157 | 3.0 | 7.0 | 0.00 | 0.00 | 0.00 | 1020.0 | |
| 20260831174804 | 0 | 157 | 3.0 | 7.0 | 0.00 | 0.00 | 0.00 | 1020.0 | |
| 20260831174300 | 0 | 157 | 3.0 | 7.0 | 0.00 | 0.00 | 0.00 | 1020.1 | |
| 20260831173759 | 0 | 157 | 3.0 | 7.0 | 0.00 | 0.00 | 0.00 | 1020.2 | |
| 20260831173253 | 0 | 157 | 3.0 | 7.0 | 0.00 | 0.00 | 0.00 | 1020.3 | |
| 20260831172748 | 0 | 157 | 3.0 | 7.0 | 0.00 | 0.00 | 0.00 | 1020.3 | |
| 20260831172243 | 0 | 215 | 3.0 | 4.0 | 0.00 | 0.00 | 0.00 | 1020.3 | |
| 20260831171738 | 0 | 215 | 3.0 | 4.0 | 0.00 | 0.00 | 0.00 | 1020.6 | |
| 20260831171236 | 0 | 172 | 2.0 | 7.0 | 0.00 | 0.00 | 0.00 | 1020.6 | |
| 20260831170732 | 0 | 172 | 2.0 | 7.0 | 0.00 | 0.00 | 0.00 | 1020.7 | |
| 20260831170228 | 0 | 172 | 2.0 | 7.0 | 0.00 | 0.00 | 0.00 | 1020.6 | |
| 20260831165724 | 0 | 172 | 2.0 | 7.0 | 0.00 | 0.00 | 0.00 | 1020.6 | |
| 20260831165220 | 0 | 172 | 2.0 | 7.0 | 0.00 | 0.00 | 0.00 | 1020.5 | |
| 20260831164715 | 0 | 174 | 4.0 | 5.0 | 0.00 | 0.00 | 0.00 | 1020.6 | |
| 20260831164212 | 0 | 202 | 2.0 | 4.0 | 0.00 | 0.00 | 0.00 | 1020.5 | |
| 20260831163707 | 0 | 202 | 2.0 | 4.0 | 0.00 | 0.00 | 0.00 | 1020.5 | |
| 20260831163202 | 0 | 253 | 3.0 | 4.0 | 0.00 | 0.00 | 0.00 | 1020.5 | |
| 20260831162701 | 0 | 221 | 2.0 | 3.0 | 0.00 | 0.00 | 0.00 | 1020.4 | |
| 20260831162200 | 0 | 231 | 1.0 | 4.0 | 0.00 | 0.00 | 0.00 | 1020.6 | |
| 20260831161655 | 0 | 174 | 3.0 | 5.0 | 0.00 | 0.00 | 0.00 | 1020.6 | |
| 20260831161152 | 0 | 0.0 | 0.0 | 0.00 | 0.00 | 0.00 | 1020.7 | ||
| 20260831160651 | 0 | 0.0 | 0.0 | 0.00 | 0.00 | 0.00 | 1020.7 | ||
| 20260831160146 | 0 | 188 | 2.0 | 3.0 | 0.00 | 0.00 | 0.00 | 1020.7 | |
| 20260831155646 | 0 | 188 | 2.0 | 3.0 | 0.00 | 0.00 | 0.00 | 1020.7 | |
| 20260831155141 | 0 | 188 | 2.0 | 3.0 | 0.00 | 0.00 | 0.00 | 1020.6 | |
| 20260831154637 | 0 | 188 | 2.0 | 3.0 | 0.00 | 0.00 | 0.00 | 1020.7 | |
| 20260831154132 | 0 | 188 | 2.0 | 3.0 | 0.00 | 0.00 | 0.00 | 1020.7 | |
| 20260831153631 | 0 | 188 | 2.0 | 3.0 | 0.00 | 0.00 | 0.00 | 1020.6 | |
| 20260831153128 | 0 | 188 | 2.0 | 3.0 | 0.00 | 0.00 | 0.00 | 1020.6 | |
| 20260831152623 | 0 | 188 | 2.0 | 3.0 | 0.00 | 0.00 | 0.00 | 1020.7 | |
| 20260831152119 | 0 | 188 | 2.0 | 3.0 | 0.00 | 0.00 | 0.00 | 1020.5 | |
| 20260831151619 | 0 | 188 | 2.0 | 3.0 | 0.00 | 0.00 | 0.00 | 1020.6 | |
| 20260831151113 | 0 | 188 | 2.0 | 3.0 | 0.00 | 0.00 | 0.00 | 1020.6 | |
| 20260831150608 | 0 | 188 | 2.0 | 3.0 | 0.00 | 0.00 | 0.00 | 1020.5 | |
| 20260831150104 | 0 | 207 | 1.0 | 4.0 | 0.00 | 0.00 | 0.00 | 1020.4 | |
| 20260831145558 | 0 | 231 | 3.0 | 3.0 | 0.00 | 0.00 | 0.00 | 1020.5 | |
| 20260831145054 | 0 | 0.0 | 0.0 | 0.00 | 0.00 | 0.00 | 1020.3 | ||
| 20260831144549 | 0 | 0.0 | 0.0 | 0.00 | 0.00 | 0.00 | 1020.3 | ||
| 20260831144044 | 0 | 0.0 | 0.0 | 0.00 | 0.00 | 0.00 | 1020.3 | ||
| 20260831143539 | 0 | 0.0 | 0.0 | 0.00 | 0.00 | 0.00 | 1020.4 | ||
| 20260831143035 | 0 | 0.0 | 0.0 | 0.00 | 0.00 | 0.00 | 1020.3 | ||
| 20260831142526 | 0 | 0.0 | 0.0 | 0.00 | 0.00 | 0.00 | 1020.3 | ||
| 20260831142021 | 0 | 0.0 | 0.0 | 0.00 | 0.00 | 0.00 | 1020.3 | ||
| 20260831141520 | 0 | 0.0 | 0.0 | 0.00 | 0.00 | 0.00 | 1020.4 | ||
| 20260831141014 | 0 | 0.0 | 0.0 | 0.00 | 0.00 | 0.00 | 1020.3 | ||
| 20260831140509 | 0 | 199 | 1.0 | 2.0 | 0.00 | 0.00 | 0.00 | 1020.2 | |
| 20260831140009 | 0 | 199 | 1.0 | 2.0 | 0.00 | 0.00 | 0.00 | 1020.0 | |
| 20260831135506 | 0 | 199 | 1.0 | 2.0 | 0.00 | 0.00 | 0.00 | 1020.1 | |
| 20260831135001 | 0 | 199 | 1.0 | 2.0 | 0.00 | 0.00 | 0.00 | 1020.2 | |
| 20260831134458 | 0 | 199 | 1.0 | 2.0 | 0.00 | 0.00 | 0.00 | 1020.2 | |
| 20260831133957 | 0 | 199 | 1.0 | 2.0 | 0.00 | 0.00 | 0.00 | 1020.2 | |
| 20260831133452 | 0 | 199 | 1.0 | 2.0 | 0.00 | 0.00 | 0.00 | 1019.9 | |
| 20260831132947 | 0 | 199 | 1.0 | 2.0 | 0.00 | 0.00 | 0.00 | 1019.9 | |
| 20260831132443 | 0 | 199 | 1.0 | 2.0 | 0.00 | 0.00 | 0.00 | 1020.0 | |
| 20260831131942 | 0 | 199 | 1.0 | 2.0 | 0.00 | 0.00 | 0.00 | 1019.9 | |
| 20260831131437 | 0 | 199 | 1.0 | 2.0 | 0.00 | 0.00 | 0.00 | 1019.8 | |
| 20260831130933 | 0 | 199 | 1.0 | 2.0 | 0.00 | 0.00 | 0.00 | 1019.9 | |
| 20260831130428 | 0 | 230 | 2.0 | 2.0 | 0.00 | 0.00 | 0.00 | 1019.8 | |
| 20260831125928 | 0 | 230 | 2.0 | 2.0 | 0.00 | 0.00 | 0.00 | 1019.8 | |
| 20260831125427 | 0 | 230 | 2.0 | 2.0 | 0.00 | 0.00 | 0.00 | 1019.6 | |
| 20260831124923 | 0 | 230 | 2.0 | 2.0 | 0.00 | 0.00 | 0.00 | 1019.5 | |
| 20260831124419 | 0 | 230 | 2.0 | 2.0 | 0.00 | 0.00 | 0.00 | 1019.5 | |
| 20260831123915 | 0 | 230 | 2.0 | 2.0 | 0.00 | 0.00 | 0.00 | 1019.5 | |
| 20260831123413 | 0 | 230 | 2.0 | 2.0 | 0.00 | 0.00 | 0.00 | 1019.5 | |
| 20260831122908 | 0 | 230 | 2.0 | 2.0 | 0.00 | 0.00 | 0.00 | 1019.6 | |
| 20260831122404 | 0 | 230 | 2.0 | 2.0 | 0.00 | 0.00 | 0.00 | 1019.4 | |
| 20260831121858 | 0 | 230 | 2.0 | 2.0 | 0.00 | 0.00 | 0.00 | 1019.5 | |
| 20260831121354 | 0 | 199 | 0.0 | 1.0 | 0.00 | 0.00 | 0.00 | 1019.5 | |
| 20260831120850 | 0 | 199 | 0.0 | 1.0 | 0.00 | 0.00 | 0.00 | 1019.6 | |
| 20260831120344 | 0 | 199 | 0.0 | 1.0 | 0.00 | 0.00 | 0.00 | 1019.5 | |
| 20260831115839 | 0 | 199 | 0.0 | 1.0 | 0.00 | 0.00 | 0.00 | 1019.4 | |
| 20260831115336 | 0 | 199 | 0.0 | 1.0 | 0.00 | 0.00 | 0.00 | 1019.6 | |
| 20260831114835 | 0 | 199 | 0.0 | 1.0 | 0.00 | 0.00 | 0.00 | 1019.2 | |
| 20260831114333 | 0 | 199 | 0.0 | 1.0 | 0.00 | 0.00 | 0.00 | 1019.2 | |
| 20260831113830 | 0 | 199 | 0.0 | 1.0 | 0.00 | 0.00 | 0.00 | 1019.3 | |
| 20260831113330 | 0 | 217 | 0.0 | 1.0 | 0.00 | 0.00 | 0.00 | 1019.3 | |
| 20260831112824 | 0 | 217 | 0.0 | 1.0 | 0.00 | 0.00 | 0.00 | 1019.1 | |
| 20260831112319 | 0 | 240 | 1.0 | 2.0 | 0.00 | 0.00 | 0.00 | 1019.3 | |
| 20260831111815 | 0 | 240 | 1.0 | 2.0 | 0.00 | 0.00 | 0.00 | 1019.1 | |
| 20260831111310 | 0 | 240 | 1.0 | 2.0 | 0.00 | 0.00 | 0.00 | 1019.0 | |
| 20260831110807 | 0 | 240 | 1.0 | 2.0 | 0.00 | 0.00 | 0.00 | 1019.0 | |
| 20260831110301 | 0 | 240 | 1.0 | 2.0 | 0.00 | 0.00 | 0.00 | 1018.9 | |
| 20260831105800 | 0 | 216 | 2.0 | 2.0 | 0.00 | 0.00 | 0.00 | 1019.0 | |
| 20260831105256 | 0 | 216 | 2.0 | 2.0 | 0.00 | 0.00 | 0.00 | 1019.0 | |
| 20260831104755 | 0 | 216 | 2.0 | 2.0 | 0.00 | 0.00 | 0.00 | 1019.0 | |
| 20260831104252 | 0 | 218 | 1.0 | 3.0 | 0.00 | 0.00 | 0.00 | 1018.9 | |
| 20260831103752 | 0 | 237 | 0.0 | 2.0 | 0.00 | 0.00 | 0.00 | 1018.9 | |
| 20260831103248 | 0 | 246 | 0.0 | 1.0 | 0.00 | 0.00 | 0.00 | 1018.9 | |
| 20260831102742 | 0 | 253 | 0.0 | 2.0 | 0.00 | 0.00 | 0.00 | 1018.9 | |
| 20260831102237 | 0 | 191 | 0.0 | 1.0 | 0.00 | 0.00 | 0.00 | 1019.0 | |
| 20260831101732 | 0 | 191 | 0.0 | 1.0 | 0.00 | 0.00 | 0.00 | 1019.1 | |
| 20260831101228 | 0 | 191 | 0.0 | 1.0 | 0.00 | 0.00 | 0.00 | 1019.0 | |
| 20260831100724 | 0 | 213 | 2.0 | 3.0 | 0.00 | 0.00 | 0.00 | 1018.9 | |
| 20260831100220 | 0 | 213 | 2.0 | 3.0 | 0.00 | 0.00 | 0.00 | 1019.1 | |
| 20260831095718 | 0 | 224 | 0.0 | 1.0 | 0.00 | 0.00 | 0.00 | 1019.1 | |
| 20260831095213 | 0 | 206 | 0.0 | 1.0 | 0.00 | 0.00 | 0.00 | 1019.1 | |
| 20260831094708 | 0 | 206 | 0.0 | 1.0 | 0.00 | 0.00 | 0.00 | 1018.9 | |
| 20260831094204 | 0 | 230 | 0.0 | 2.0 | 0.00 | 0.00 | 0.00 | 1019.0 | |
| 20260831093700 | 0 | 222 | 1.0 | 2.0 | 0.00 | 0.00 | 0.00 | 1018.8 | |
| 20260831093155 | 0 | 183 | 0.0 | 2.0 | 0.00 | 0.00 | 0.00 | 1018.9 | |
| 20260831092651 | 0 | 242 | 0.0 | 1.0 | 0.00 | 0.00 | 0.00 | 1018.9 | |
| 20260831092147 | 0 | 228 | 0.0 | 2.0 | 0.00 | 0.00 | 0.00 | 1019.0 | |
| 20260831091646 | 0 | 247 | 0.0 | 2.0 | 0.00 | 0.00 | 0.00 | 1018.9 | |
| 20260831091142 | 0 | 227 | 1.0 | 2.0 | 0.00 | 0.00 | 0.00 | 1018.8 | |
| 20260831090637 | 0 | 202 | 0.0 | 2.0 | 0.00 | 0.00 | 0.00 | 1018.9 | |
| 20260831090133 | 0 | 237 | 0.0 | 1.0 | 0.00 | 0.00 | 0.00 | 1018.9 | |
| 20260831085628 | 0 | 223 | 0.0 | 2.0 | 0.00 | 0.00 | 0.00 | 1018.9 | |
| 20260831085124 | 0 | 206 | 0.0 | 1.0 | 0.00 | 0.00 | 0.00 | 1019.0 | |
| 20260831084619 | 0 | 218 | 1.0 | 2.0 | 0.00 | 0.00 | 0.00 | 1018.8 | |
| 20260831084115 | 0 | 217 | 0.0 | 1.0 | 0.00 | 0.00 | 0.00 | 1019.0 | |
| 20260831083611 | 0 | 207 | 1.0 | 2.0 | 0.00 | 0.00 | 0.00 | 1019.1 | |
| 20260831083106 | 0 | 218 | 0.0 | 2.0 | 0.00 | 0.00 | 0.00 | 1019.0 | |
| 20260831082605 | 0 | 205 | 0.0 | 1.0 | 0.00 | 0.00 | 0.00 | 1019.0 | |
| 20260831082100 | 0 | 236 | 0.0 | 2.0 | 0.00 | 0.00 | 0.00 | 1018.9 | |
| 20260831081556 | 0 | 219 | 0.0 | 4.0 | 0.00 | 0.00 | 0.00 | 1018.9 | |
| 20260831081051 | 0 | 213 | 1.0 | 2.0 | 0.00 | 0.00 | 0.00 | 1019.1 | |
| 20260831080546 | 0 | 199 | 1.0 | 5.0 | 0.00 | 0.00 | 0.00 | 1018.8 | |
| 20260831080042 | 0 | 196 | 0.0 | 2.0 | 0.00 | 0.00 | 0.00 | 1018.7 | |
| 20260831075542 | 0 | 140 | 2.0 | 7.0 | 0.00 | 0.00 | 0.00 | 1018.8 | |
| 20260831075037 | 0 | 213 | 0.0 | 2.0 | 0.00 | 0.00 | 0.00 | 1018.8 | |
| 20260831074532 | 0 | 219 | 2.0 | 4.0 | 0.00 | 0.00 | 0.00 | 1018.9 | |
| 20260831074032 | 0 | 200 | 2.0 | 5.0 | 0.00 | 0.00 | 0.00 | 1018.8 | |
| 20260831073526 | 0 | 207 | 2.0 | 7.0 | 0.00 | 0.00 | 0.00 | 1018.7 | |
| 20260831073026 | 0 | 222 | 1.0 | 3.0 | 0.00 | 0.00 | 0.00 | 1019.0 | |
| 20260831072521 | 0 | 230 | 0.0 | 2.0 | 0.00 | 0.00 | 0.00 | 1018.8 | |
| 20260831072018 | 0 | 254 | 0.0 | 2.0 | 0.00 | 0.00 | 0.00 | 1018.9 | |
| 20260831071516 | 0 | 228 | 1.0 | 3.0 | 0.00 | 0.00 | 0.00 | 1018.9 | |
| 20260831071012 | 0 | 193 | 2.0 | 3.0 | 0.00 | 0.00 | 0.00 | 1018.8 | |
| 20260831070510 | 0 | 217 | 2.0 | 2.0 | 0.00 | 0.00 | 0.00 | 1018.9 | |
| 20260831070005 | 0 | 229 | 0.0 | 4.0 | 0.00 | 0.00 | 0.00 | 1019.0 | |
| 20260831065503 | 0 | 205 | 2.0 | 6.0 | 0.00 | 0.00 | 0.00 | 1019.0 | |
| 20260831064958 | 0 | 252 | 2.0 | 2.0 | 0.00 | 0.00 | 0.00 | 1018.9 | |
| 20260831064453 | 0 | 229 | 0.0 | 1.0 | 0.00 | 0.00 | 0.00 | 1019.1 | |
| 20260831063948 | 0 | 136 | 0.0 | 2.0 | 0.00 | 0.00 | 0.00 | 1019.0 | |
| 20260831063443 | 0 | 202 | 1.0 | 3.0 | 0.00 | 0.00 | 0.00 | 1019.0 | |
| 20260831062937 | 0 | 229 | 0.0 | 3.0 | 0.00 | 0.00 | 0.00 | 1019.1 | |
| 20260831062433 | 0 | 200 | 2.0 | 3.0 | 0.00 | 0.00 | 0.00 | 1019.0 | |
| 20260831061932 | 0 | 180 | 2.0 | 2.0 | 0.00 | 0.00 | 0.00 | 1018.8 | |
| 20260831061431 | 0 | 205 | 0.0 | 2.0 | 0.00 | 0.00 | 0.00 | 1019.1 | |
| 20260831060927 | 0 | 209 | 0.0 | 2.0 | 0.00 | 0.00 | 0.00 | 1019.0 | |
| 20260831060422 | 0 | 226 | 1.0 | 2.0 | 0.00 | 0.00 | 0.00 | 1019.0 | |
| 20260831055921 | 0 | 216 | 1.0 | 4.0 | 0.00 | 0.00 | 0.00 | 1018.8 | |
| 20260831055416 | 0 | 227 | 0.0 | 2.0 | 0.00 | 0.00 | 0.00 | 1018.7 | |
| 20260831054912 | 0 | 217 | 0.0 | 1.0 | 0.00 | 0.00 | 0.00 | 1018.7 | |
| 20260831054407 | 0 | 211 | 0.0 | 4.0 | 0.00 | 0.00 | 0.00 | 1018.8 | |
| 20260831053906 | 0 | 165 | 0.0 | 2.0 | 0.00 | 0.00 | 0.00 | 1018.8 | |
| 20260831053404 | 0 | 195 | 0.0 | 1.0 | 0.00 | 0.00 | 0.00 | 1018.7 | |
| 20260831052859 | 0 | 136 | 5.0 | 5.0 | 0.00 | 0.00 | 0.00 | 1018.5 | |
| 20260831052358 | 0 | 244 | 1.0 | 2.0 | 0.00 | 0.00 | 0.00 | 1018.7 | |
| 20260831051857 | 0 | 212 | 0.0 | 2.0 | 0.00 | 0.00 | 0.00 | 1018.5 | |
| 20260831051355 | 0 | 116 | 1.0 | 2.0 | 0.00 | 0.00 | 0.00 | 1018.4 | |
| 20260831050850 | 0 | 175 | 2.0 | 3.0 | 0.00 | 0.00 | 0.00 | 1018.5 | |
| 20260831050350 | 0 | 217 | 0.0 | 2.0 | 0.00 | 0.00 | 0.00 | 1018.6 | |
| 20260831045844 | 0 | 207 | 0.0 | 4.0 | 0.00 | 0.00 | 0.00 | 1018.3 | |
| 20260831045343 | 0 | 240 | 0.0 | 2.0 | 0.00 | 0.00 | 0.00 | 1018.5 | |
| 20260831044838 | 0 | 207 | 1.0 | 2.0 | 0.00 | 0.00 | 0.00 | 1018.4 | |
| 20260831044333 | 0 | 192 | 1.0 | 2.0 | 0.00 | 0.00 | 0.00 | 1018.3 |